Location: Unspecified
(22.6800°N, 112.2000°E)
Time: 04:29:50
(UTC+08:00)

S-56A Canister/Altair - Pass Details

Date: 28 July 2021
Orbit: 632 x 2500 km, 38.9° (Epoch: 27 September)

Event Time Altitude Azimuth Distance (km) Brightness Sun altitude
Rises 19:31:00 0° 292° (WNW) 6,160 15.4 -4.4°
Reaches altitude 10° 19:35:34 10° 299° (WNW) 5,163 13.6 -5.4°
Maximum altitude 19:49:15 40° 4° (N) 3,042 10.7 -8.2°
Drops below altitude 10° 20:00:16 10° 71° (ENE) 4,194 10.9 -10.5°
Enters shadow 20:03:01 - 78° (ENE) 4,817 11.1 -11.1°
Sets 20:03:32 0° 79° (E) 4,939 - -11.2°
